sat.trackr.live / text

‹ back to catalog

STARLINK-11708 [DTC]

NORAD 64238 · 2025-119F

PAYLOAD ACTIVE UNKNOWN

§ Identity

Operator
Country
US
Launch date
2025-06-03
Launch site
AFETR
Launch vehicle
Mass (kg)
RCS (m²)

Purposes: comms

External: N2YO · Heavens-Above · Gunter

§ Orbital elements

Epoch: 2026-09-19T22:55:20.045568Z

Period
91.67 min
Inclination
42.9979°
Eccentricity
0.0002826
Mean motion
15.70897444 rev/d
Perigee alt
354.4 km
Apogee alt
358.2 km
Semi-major
6,734.5 km
B*
1.2490e-3
RAAN
118.5052°
Arg perigee
260.8737°
Mean anomaly
99.1811°
Rev number
7,579

§ Raw data

STARLINK-11708 [DTC]1 64238U 25119F   26262.95509312  .00163420  00000+0  12490-2 0  99962 64238  42.9979 118.5052 0002826 260.8737  99.1811 15.70897444 75794

JSON: /api/v1/satellites/64238 · /tle

For live sub-satellite position, see the globe view (requires WebGL).

§ Visibility from observer

Set your observer location to see the next 7 days of passes ≥ 10°. The values pass through the URL so the page stays shareable.

No JS? Fill the form by hand. The geolocation button needs JavaScript.